Regional Weather Roundup
Issued by NWS Upton, NY

Current Version | Previous Version | Graphics & Text | Print | Product List | Glossary Off
Versions: 1 2 3 4 5 6 7 8 9 10 11 12 13 14 15 16 17 18 19 20 21 22 23 24 25 26 27 28 29 30 31 32 33 34 35 36 37 38 39 40 41 42 43 44 45 46 47 48 49 50

000
ASUS41 KOKX 290005
RWROKX
REGIONAL WEATHER ROUNDUP
NATIONAL WEATHER SERVICE NEW YORK NY
800 PM EDT MON JUL 28 2014

NOTE: "FAIR" INDICATES FEW OR NO CLOUDS BELOW 12,000 FEET WITH NO
SIGNIFICANT WEATHER AND/OR OBSTRUCTIONS TO VISIBILITY.

NYZ071-072-176-178-NJZ106-104-290100-
NEW YORK CITY METRO AREA


CITY           SKY/WX    TMP DP  RH WIND       PRES   REMARKS
CENTRAL PARK   PTCLDY    74  57  55 W9G16     29.63R
LAGUARDIA APRT MOCLDY    76  57  51 W14G23    29.60R
KENNEDY INTL   MOCLDY    78  58  49 NW18G29   29.61R
NEWARK/LIBERTY MOCLDY    75  58  55 W18       29.61R
BRNX BOT. GARD   N/A     73  57  56 W14       29.63R
TETERBORO      CLEAR     75  58  55 W13G21    29.60R
$$

NYZ177-179-078>081-290100-
LONG ISLAND NEW YORK

CITY           SKY/WX    TMP DP  RH WIND       PRES   REMARKS
FARMINGDALE    CLOUDY    77  59  53 NW16G24   29.59R
ISLIP          MOCLDY    80  58  46 SW14      29.56R
SHIRLEY        CLEAR     79  59  50 SW13G23   29.57R
WESTHAMPTON    CLEAR     78  61  55 SW13      29.58R
MONTAUK POINT    N/A     76  65  68 SW13G21   29.57R
$$

NYZ052-065-067-290100-
HUDSON VALLEY

CITY           SKY/WX    TMP DP  RH WIND       PRES   REMARKS
WHITE PLAINS   PTCLDY    68  62  81 W9        29.59S
NEWBURGH       PTCLDY    68  64  88 W12       29.60R
MONTGOMERY     MOCLDY    70  62  76 W9G18     29.59R
POUGHKEEPSIE   MOCLDY    72  64  76 SW9       29.56R
ALBANY         MOCLDY    68  60  75 NW21G26   29.56R
$$

NJZ001-105-106-008-010-013-015-019>022-104-290100-
NEW JERSEY

CITY           SKY/WX    TMP DP  RH WIND       PRES   REMARKS
NEWARK/LIBERTY MOCLDY    75  58  55 W18       29.61R
TETERBORO      CLEAR     75  58  55 W13G21    29.60R
CALDWELL       CLEAR     71  58  63 W14G20    29.63R
MORRISTOWN     PTCLDY    72  59  64 NW10G21   29.63R
SOMERVILLE     PTCLDY    72  60  66 VRB7      29.63R
LINDEN         FAIR      75  58  54 NW20      29.64R
SUSSEX         LGT RAIN  70  61  73 VRB5G16   29.63R
ANDOVER          N/A     67  61  81 CALM      29.66R
TRENTON        CLOUDY    73  58  59 MISG      29.65R
MILLVILLE      PTCLDY    78  59  51 W9G20     29.68R
ATLANTIC CITY  PTCLDY    78  58  49 W8        29.66R
WRIGHTSTOWN    MOCLDY    78  58  51 W10       29.63R
TOMS RIVER     CLOUDY    75  61  60 W6        29.65R
BELMAR         MOCLDY    77  59  53 W7        29.63R
$$

PAZ047>061-062-071-290100-
EASTERN PENNSYLVANIA

CITY           SKY/WX    TMP DP  RH WIND       PRES   REMARKS
PHILADELPHIA   LGT RAIN  78  59  51 NW20G30   29.67R
ALLENTOWN      MOCLDY    69  61  75 W12       29.69R
SCRANTON       CLOUDY    65  57  75 NW10      29.73R
$$

CTZ002-004>006-009-010-012-RIZ004-006-007-MAZ004-011-015-290100-
SOUTHERN NEW ENGLAND
 IN CT

CITY           SKY/WX    TMP DP  RH WIND       PRES   REMARKS
BRADLEY INTL   MOCLDY    72  65  78 SW5       29.52R
HARTFORD       PTCLDY    75  60  59 SW8       29.53R
DANBURY        PTCLDY    68  60  75 W12       29.59R
WTRBRY/OXFORD  PTCLDY    72  57  60 W8        29.59R
BRIDGEPORT     MOCLDY    76  60  57 W14G24    29.56R
MERIDEN        PTCLDY    75  59  57 VRB5      29.55R
NEW HAVEN      PTCLDY    78  59  51 W9G16     29.56R
CHESTER        FAIR      75  61  60 W5        29.56R
GROTON         PTCLDY    72  68  87 SW8       29.53R
WILLIMANTIC    PTCLDY    71  66  84 CALM      29.54R

 IN RI

CITY           SKY/WX    TMP DP  RH WIND       PRES   REMARKS
PROVIDENCE     PTCLDY    76  65  68 SW14G22   29.52S
BLOCK ISLAND   CLEAR     72  66  83 SW15G22   29.56S
WESTERLY       PTCLDY    77  65  66 SW10G21   29.55R

 IN MA

CITY           SKY/WX    TMP DP  RH WIND       PRES   REMARKS
BOSTON         MOCLDY    80  63  55 W15G22    29.49R
WORCESTER      MOCLDY    65  61  87 SW12      29.54R
WESTFIELD      PTCLDY    72  63  73 W7        29.53R
PROVINCETOWN   CLEAR     72  66  83 SW20G25   29.53R
NANTUCKET      CLEAR     69  67  93 SW15      29.58R
$$

ANZ330-335-338-340-345-350-353-355-290100-
COASTAL MARINE OBSERVATIONS


STATION/POSITION TIME  SKY/WX   TEMP    WIND        PRES    VSBY  WAVE
                                AIR SEA DIR/SP/G                  HT/PER
                 (UTC)          (F)     (DEG/KT/KT) (MB)    (MI)  (FT/S)
NY HARB ENTRANCE NOT AVBL
4S FIRE IS       NOT AVBL
23SW MTP         0000            73 69              1000.8          6/ 7
HUDSON CANYON    0000            77 75  250/ 17/ 21 1003.1          5/ 7
EXECUTION ROCKS  0000            74 71  290/ 16/ 21   N/A
WESTERN LI SOUND 0000            72     280/ 12/ 16   N/A           1/ 3
CENTRAL LI SOUND 0000            77 73  250/ 16/ 19   N/A           2/ 3
EASTERN LI SOUND 2300            73 69  210/ 14/ 17   N/A
ROBBINS REEF     0000            76     290/ 21/ 25   N/A
$$


>>>>>>>>>>>>>>>>>>>>>>>>>>>> KEY <<<<<<<<<<<<<<<<<<<<<<<<<<<
>                                                          <
>     SKY/WX - SKY CONDITION/PRESENT WEATHER               <
>     TMP    - TEMPERATURE IN FAHRENHEIT                   <
>     DP     - DEWPOINT IN FAHRENHEIT                      <
>     RH     - RELATIVE HUMIDITY IN PERCENT                <
>     WIND   - DIRECTION AND SPEED IN MPH                  <
>     PRES   - MEAN SEA LEVEL PRESSURE IN INCHES OF HG     <
>     WCI    - WIND CHILL INDEX                            <
>     VSB    - VISIBILITY IN MILES                         <
>     HX     - HEAT INDEX                                  <
>     TC     - TEMPERATURE IN CELSIUS                      <
>     VRB    - VARIABLE WIND DIRECTION                     <
>                                                          <
>>>>>>>>>>>>>>>>>>>>>>>>>>>> KEY <<<<<<<<<<<<<<<<<<<<<<<<<<<




USA.gov is the U.S. government's official web portal to all federal, state and local government web resources and services.